Weather Service Report


972 
ASUS43 KFSD 292210
RWRSD 

WEATHER ROUNDUP FOR SOUTH DAKOTA
NATIONAL WEATHER SERVICE SIOUX FALLS SD
500 PM CDT WED MAR 29 2017

NOTE: "FAIR" INDICATES FEW OR NO CLOUDS BELOW 12,000 FEET WITH NO
SIGNIFICANT WEATHER AND/OR OBSTRUCTIONS TO VISIBILITY.


SDZ001>005-009-010-012>017-292300-
NORTHWEST AND NORTH CENTRAL SOUTH DAKOTA
  
CITY           SKY/WX    TMP DP  RH WIND       PRES   REMARKS
BUFFALO          N/A     62  27  26 NW8       29.87F                  
FAITH            N/A     56  40  55 MISG      29.97F                  
MOBRIDGE       SUNNY     63  28  26 S9        29.96F                  
$$
 
SDZ012>016-024>037-041>051-057-063-072>074-292300-
SOUTHWEST AND SOUTH CENTRAL SOUTH DAKOTA
  
CITY           SKY/WX    TMP DP  RH WIND       PRES   REMARKS
RAPID CTY ARPT PTSUNNY   56  37  49 NE9       29.97F                  
PIERRE         CLOUDY    59  34  39 SE15      29.99F                  
CUSTER         CLOUDY    45  36  70 E8        29.99F                  
ELLSWORTH AFB  PTSUNNY   55  38  52 E8        29.97F                  
PHILIP         CLOUDY    56  39  53 VRB5      30.00F                  
PINE RIDGE     CLOUDY    54  39  57 VRB6      29.99F                  
SPEARFISH      FAIR      55  34  44 NE10      29.98S                  
WINNER         MOCLDY    52  38  58 E17       30.01S                  
$$
 
SDZ004>011-016>023-039-040-292300-
NORTHEAST SOUTH DAKOTA
  
CITY           SKY/WX    TMP DP  RH WIND       PRES   REMARKS
ABERDEEN       CLOUDY    60  29  30 SE14      30.04S                  
WATERTOWN      PTSUNNY   51  33  50 SE16G23   30.07S                  
BROOKINGS      CLOUDY    47  36  65 E20G25    30.07S                  
SISSETON         N/A     58  35  42 S16       30.06F                  
$$
 
SDZ017-020-022-023-036>040-048>070-292300-
SOUTHEAST SOUTH DAKOTA
  
CITY           SKY/WX    TMP DP  RH WIND       PRES   REMARKS
SIOUX FALLS    LGT RAIN  43  40  89 E24G33    30.05F                  
HURON          PTSUNNY   55  36  48 SE12      30.04F                  
CHAMBERLAIN    CLOUDY    53  38  57 E13G20    30.04S                  
MITCHELL       CLOUDY    53  35  50 E18G26    30.05F                  
YANKTON        CLOUDY    43  37  81 NE21G30   30.00F                  
$$
 
ABBREVIATIONS USED IN REMARKS
   TC - TEMPERATURE IN CELSIUS
  WCI - WIND CHILL INDEX
   HX - HEAT INDEX
  VSB - VISIBILITY

  


974 
ASUS43 KFSD 292210
RWRFSD

WEATHER ROUNDUP FOR SE SOUTH DAKOTA/SW MINNESOTA/NW IOWA
NATIONAL WEATHER SERVICE SIOUX FALLS SD
500 PM CDT WED MAR 29 2017

NOTE: "FAIR" INDICATES FEW OR NO CLOUDS BELOW 12,000 FEET WITH NO
SIGNIFICANT WEATHER AND OR OBSTRUCTIONS TO VISIBILITY.


SDZ038>040-050-052>070-292300-
SOUTHEAST SOUTH DAKOTA
  
CITY           SKY/WX    TMP DP  RH WIND       PRES   REMARKS
BROOKINGS      CLOUDY    47  36  65 E20G25    30.07S                  
CHAMBERLAIN    CLOUDY    53  38  57 E13G20    30.04S                  
HURON          PTSUNNY   55  36  48 SE12      30.04F                  
MADISON        MOCLDY    46  39  76 E24G32    30.06S                  
MITCHELL       CLOUDY    53  35  50 E18G26    30.05F                  
SIOUX FALLS    LGT RAIN  43  40  89 E24G33    30.05F                  
WINNER         MOCLDY    52  38  58 E17       30.01S                  
YANKTON        CLOUDY    43  37  81 NE21G30   30.00F                  
$$

MNZ071-072-080-081-089-090-097-098-292300-
SOUTHWEST MINNESOTA
  
CITY           SKY/WX    TMP DP  RH WIND       PRES   REMARKS
FAIRMONT       LGT RAIN  41  37  86 E20G29    30.10S FOG              
JACKSON        LGT RAIN  39  39 100 E22G28    30.08F                  
LUVERNE        LGT RAIN  41  36  81 E16G23    30.06F                  
MARSHALL       LGT RAIN  45  40  82 SE18G26   30.12S                  
MONTEVIDEO     CLOUDY    52  37  58 S18       30.13R                  
PIPESTONE      RAIN      43  36  75 SE16G24   30.06F                  
REDWOOD FALLS  LGT RAIN  45  40  82 SE14      30.13S                  
TRACY          LGT RAIN  44  41  91 E14       30.11S                  
WINDOM         LGT RAIN  43  39  87 E14G21    30.09F                  
WORTHINGTON    LGT RAIN  40  37  89 E20       30.06S                  
$$

IAZ001>003-012>014-020>022-031-032-NEZ013-014-SDZ071-292300-
NORTHWEST IOWA
  
CITY           SKY/WX    TMP DP  RH WIND       PRES   REMARKS
CHEROKEE       LGT RAIN  39  39  98 NE20G31   29.98F                  
DENISON        LGT RAIN  41  41 100 E24G32    29.94S                  
ESTHERVILLE    RAIN      40  38  93 E21G30    30.06F FOG              
LE MARS        CLOUDY    41  39  93 NE17G30   29.99F                  
ORANGE CITY    LGT RAIN  39  37  93 E22G32    29.99F                  
SHELDON        CLOUDY    39  37  93 E26G36    30.00F FOG              
SIOUX CITY     LGT RAIN  42  41  96 E21G29    29.95R                  
SPENCER        RAIN      40  37  89 E32G41    30.03F                  
STORM LAKE     CLOUDY    39  37  93 NE33      29.96F FOG              
$$
 
ABBREVIATIONS USED IN REMARKS
   TC - TEMPERATURE IN CELSIUS
  WCI - WIND CHILL INDEX
   HX - HEAT INDEX
  VSB - VISIBILITY

  

Return to Home page


Western Regional Climate Center, wrcc@dri.edu